Location: Dompnac
(44.5644°N, 4.1026°E)
Time: 11:14:33
(UTC+00:00)

Cosmos 1707 - Pass Details

Date: 19 September 2020
Orbit: 515 x 530 km, 82.5° (Epoch: 29 October)

Event Time Altitude Azimuth Distance (km) Brightness Sun altitude
Rises 19:03:44 0° 351° (N) 2,650 6.7 -14.5°
Reaches altitude 10° 19:05:53 10° 351° (N) 1,756 5.7 -14.8°
Maximum altitude 19:09:44 86° 262° (W) 524 2.7 -15.5°
Drops below altitude 10° 19:13:33 10° 174° (S) 1,738 5.1 -16.1°
Enters shadow 19:14:04 - 174° (S) 1,953 5.4 -16.2°
